Theta_e
319 319 319 319 319 319 318 319 319 319 319 318 318 318 318 319 320 321 321 322 322 323 323 323 323 323 324 324 324 325 325 325 324 324 323 323 322 322 322 322 323 323 322 322 321 320 319 319 320 320 320 321 321 322 322 322 321 320 321 322 322 323 322 323 323 322 322 322 321 321 321 321 320 317 315 315 315 314 314 314 312 309 305 304 303
319 319 318 318 318 318 317 318 318 319 319 319 318 318 318 318 319 320 321 321 322 322 323 323 323 323 324 324 324 324 324 324 324 324 324 323 323 323 323 323 323 323 322 322 322 321 319 319 319 320 322 323 323 323 323 322 321 322 323 323 323 322 322 322 322 322 322 322 322 322 321 321 319 317 315 314 315 314 314 313 311 308 304 302 301
318 317 318 318 317 317 317 316 317 317 318 319 318 319 318 318 319 320 320 321 321 322 322 322 323 324 324 324 324 324 324 324 324 324 324 324 324 323 323 323 323 322 322 321 321 321 320 321 322 322 322 321 321 321 320 320 321 322 323 322 322 322 322 322 322 322 322 321 321 321 321 320 319 316 315 315 314 314 313 312 310 308 304 300 299
317 317 317 317 316 316 315 315 316 316 317 318 319 319 318 318 318 319 320 320 321 321 322 322 323 324 324 323 323 324 323 323 324 324 324 324 324 323 323 322 322 322 321 320 321 322 323 323 324 323 322 321 320 320 320 321 322 322 322 323 323 323 322 321 322 321 320 320 320 319 319 319 318 317 316 316 315 314 313 312 310 308 304 299 298
316 316 315 315 315 315 315 315 316 316 316 317 318 318 318 318 318 318 319 319 320 320 321 322 322 323 323 323 323 323 323 324 325 324 324 324 323 322 321 321 321 321 320 321 321 322 322 322 322 323 324 323 321 321 321 322 323 323 323 323 321 320 319 320 321 321 320 319 319 318 318 318 318 318 317 315 314 313 313 312 311 308 303 299 297
314 314 313 314 314 315 315 316 316 316 316 316 316 317 317 317 317 317 317 318 318 319 319 320 321 321 322 323 323 324 324 325 324 324 324 323 322 321 320 320 320 320 321 322 321 321 321 322 322 323 324 324 323 323 323 323 323 321 320 320 320 319 320 321 321 320 319 319 318 318 318 318 318 318 316 315 313 313 312 311 310 307 302 298 297
314 314 314 313 313 314 314 314 314 314 315 315 315 315 315 315 315 315 316 316 316 316 317 317 318 320 322 323 324 324 324 324 324 324 324 323 322 321 320 321 321 320 320 321 321 321 323 323 323 323 323 323 324 323 322 322 322 320 319 321 321 320 320 319 319 319 318 318 318 319 319 319 318 317 316 314 312 311 311 310 310 308 302 298 297
315 314 314 314 314 314 313 313 313 312 312 312 312 313 313 313 314 314 314 314 314 314 315 315 317 319 321 323 324 324 324 324 324 323 322 322 322 320 320 320 320 319 320 322 323 323 324 324 323 323 323 323 323 322 321 321 322 322 322 322 321 320 319 319 319 319 318 319 319 319 319 318 317 316 315 314 313 312 311 310 310 308 303 298 296
315 314 314 314 315 315 314 313 313 312 312 311 311 311 311 311 311 312 312 313 313 313 314 316 318 319 321 322 323 324 324 323 323 322 322 321 320 320 320 318 317 319 322 323 324 324 325 324 323 322 322 323 323 321 320 321 322 322 321 320 320 320 320 320 320 319 318 318 319 319 318 317 316 316 315 315 314 312 310 309 309 307 301 296 295
315 314 313 313 314 313 313 313 313 313 312 312 311 311 311 310 310 310 311 312 312 313 314 316 318 320 321 322 323 324 324 323 323 321 321 320 319 321 322 319 318 321 323 323 324 324 324 323 322 322 322 322 323 322 320 320 321 321 320 319 319 318 318 318 318 318 318 318 318 319 318 316 316 316 315 315 313 309 308 309 309 304 298 294 294
315 314 313 313 312 312 313 314 315 316 315 313 312 311 311 310 310 310 310 310 311 312 313 315 316 318 320 322 323 323 323 323 322 321 321 320 318 318 320 320 321 323 323 323 324 324 322 321 321 322 322 320 320 320 319 319 320 319 317 317 317 318 318 317 317 317 317 317 317 317 317 317 316 315 315 314 311 308 308 309 307 302 295 293 293
315 315 314 312 312 312 313 313 315 316 316 315 314 312 311 310 310 310 310 309 309 310 311 312 314 316 319 320 321 322 322 321 320 320 320 318 316 317 321 322 323 324 323 322 321 321 321 321 322 323 322 319 317 318 319 319 319 317 317 317 318 319 320 319 318 317 317 316 317 316 316 316 315 315 314 312 308 307 307 308 306 301 295 292 293
318 316 314 313 312 311 311 312 314 315 316 316 315 313 312 311 310 310 310 310 310 309 309 310 311 313 316 318 319 319 320 320 319 318 317 316 318 321 323 324 323 323 322 320 318 319 321 321 322 323 321 319 318 320 320 320 319 318 318 318 318 319 320 319 318 317 316 315 316 316 316 315 315 314 312 308 306 306 306 306 304 298 293 292 292
319 318 316 314 313 312 311 311 312 313 314 315 315 314 313 312 311 310 310 310 310 309 309 309 309 310 311 313 315 316 317 317 316 316 316 318 322 324 323 323 321 319 318 319 319 319 319 320 321 321 320 320 321 321 321 320 319 318 318 318 318 318 319 319 318 317 315 315 315 316 315 314 313 312 309 306 305 306 305 302 298 294 291 291 291
319 319 318 316 314 313 312 311 311 312 312 314 314 314 314 312 311 310 310 310 310 310 310 309 309 309 309 310 311 312 311 311 312 315 317 319 321 321 319 319 318 317 318 320 320 319 319 320 321 319 318 320 321 320 320 320 318 318 318 318 317 317 318 317 316 315 315 315 315 315 314 312 311 309 307 305 305 304 301 298 294 291 291 291 291
318 318 318 318 317 316 315 314 312 311 311 313 314 315 315 313 311 311 310 310 310 310 310 310 310 309 309 309 309 309 309 309 311 313 314 314 315 315 314 316 319 320 320 320 320 319 320 321 321 319 318 319 318 318 319 319 318 318 318 317 317 317 317 316 316 315 315 315 315 313 313 312 310 308 305 304 304 302 299 295 292 291 290 290 291
317 317 317 318 318 318 318 317 316 313 311 312 314 316 315 313 311 311 311 311 310 310 310 310 310 310 309 309 309 309 309 309 309 310 310 311 311 310 311 315 319 321 320 319 318 318 319 320 321 320 318 318 317 318 319 318 317 317 317 316 316 317 316 316 315 314 314 314 313 312 312 311 309 307 305 303 303 301 297 294 292 291 290 290 290
317 316 316 317 317 317 318 318 318 316 312 310 312 315 315 314 312 311 312 312 311 311 311 310 310 310 309 309 310 309 309 309 308 309 309 309 309 310 311 313 315 317 317 316 315 314 316 318 319 319 318 317 316 316 317 316 316 316 316 316 317 317 317 316 314 313 313 313 312 311 311 310 309 307 304 302 301 299 296 293 292 290 290 289 289
316 316 316 316 316 317 317 318 318 318 315 311 311 313 314 314 312 312 312 312 312 312 312 311 311 310 310 309 309 309 309 309 309 310 309 309 311 313 314 313 314 314 314 315 315 316 316 316 317 316 316 316 315 315 315 315 314 314 315 316 317 317 316 314 313 313 313 312 311 310 310 309 309 307 304 300 298 297 294 292 291 290 289 289 289
315 316 316 316 316 316 316 317 317 318 317 313 310 311 313 313 313 312 312 312 312 312 312 312 311 311 310 310 309 309 310 310 310 311 311 311 312 314 316 317 316 316 316 317 318 318 317 316 315 314 314 315 314 314 314 314 314 313 313 315 317 316 313 313 313 313 312 310 310 309 309 309 308 306 303 299 296 294 293 291 290 289 289 289 288
313 314 315 316 316 316 316 316 316 316 317 315 312 310 311 312 312 312 312 312 312 312 312 311 311 311 310 310 310 309 309 309 310 310 310 311 311 312 313 314 316 317 317 317 316 315 313 313 313 313 313 313 313 313 314 314 313 312 313 314 314 313 313 312 312 311 309 309 309 309 308 307 306 304 301 298 295 293 291 290 289 289 288 288 288
312 312 313 314 314 315 315 315 315 315 315 315 314 313 312 312 311 312 312 312 312 312 312 311 311 311 311 310 310 309 309 309 309 309 309 310 310 310 311 311 312 313 313 314 313 311 310 310 311 312 312 312 313 313 314 313 313 313 312 312 313 313 312 312 311 309 309 308 308 307 306 305 303 301 298 296 293 292 290 290 289 289 288 288 288
312 312 312 312 312 314 314 315 315 315 315 315 314 314 314 313 312 311 311 312 312 312 312 311 311 311 311 310 310 310 309 309 309 309 309 309 309 310 310 311 311 310 310 311 310 310 310 311 311 312 312 313 313 313 312 312 313 312 312 312 312 312 311 310 309 308 308 307 306 306 305 303 300 297 295 293 292 291 290 289 289 288 288 288 288
312 312 312 312 312 312 313 314 314 315 314 314 313 313 313 313 312 311 311 311 311 311 312 311 311 311 311 311 310 310 310 309 309 309 308 308 308 308 308 309 309 310 310 311 310 310 311 311 311 312 313 313 312 311 311 312 312 311 311 311 311 310 310 309 308 307 306 305 305 304 303 300 298 295 294 292 291 290 289 289 289 288 288 288 288
312 312 312 312 312 312 312 313 314 314 313 313 313 313 313 312 312 311 310 310 311 311 311 311 311 311 311 311 311 311 310 310 309 308 308 308 308 307 308 308 309 309 310 310 310 311 311 311 311 312 312 311 310 310 311 311 311 311 311 310 309 309 308 307 306 305 304 304 304 303 301 299 296 294 293 291 291 290 289 289 288 288 288 287 287
311 311 311 312 312 312 311 311 312 312 312 312 312 312 311 311 311 310 309 309 310 310 311 311 311 311 310 311 311 311 311 310 309 308 307 307 307 307 307 308 308 308 308 309 310 310 310 310 310 310 310 310 310 311 311 311 310 310 310 309 308 307 306 305 304 304 303 303 302 301 299 296 294 293 292 291 290 289 289 288 288 288 289 289 288
310 310 310 311 311 311 311 311 311 311 311 311 311 311 310 310 310 309 309 309 309 310 310 311 311 311 311 311 311 310 310 310 309 308 307 306 306 306 306 307 307 307 307 308 308 309 309 308 308 309 309 310 310 310 310 309 309 309 308 307 306 305 304 303 303 303 302 302 301 299 297 295 293 292 291 290 290 290 290 290 290 290 290 289 289
310 309 309 310 311 310 310 310 310 310 310 310 310 310 309 308 308 309 309 309 309 309 310 310 311 311 311 311 310 310 310 310 310 309 308 307 306 307 307 306 306 307 307 307 308 308 308 309 309 309 309 309 309 309 308 308 308 307 306 306 305 303 303 303 303 302 302 301 299 297 295 293 292 292 292 291 292 292 291 291 290 289 288 288 287
310 310 309 309 310 310 310 310 309 310 310 309 308 308 307 307 307 308 308 308 308 308 309 309 310 311 310 310 310 310 310 311 310 309 308 306 306 306 306 306 307 308 309 309 309 309 309 309 309 309 309 308 308 308 307 307 307 306 305 304 303 302 302 302 302 301 300 298 296 295 294 293 293 292 292 291 291 290 289 288 287 287 286 286 286
307 309 309 309 309 309 310 310 310 310 310 310 309 307 306 305 305 305 306 306 306 307 307 308 308 309 309 309 309 309 309 309 309 308 306 305 305 306 307 307 307 309 310 309 309 309 310 309 309 309 308 308 307 307 307 306 305 304 303 302 302 302 301 301 300 298 297 296 295 294 293 292 291 290 289 289 288 287 287 287 286 286 286 285 285
305 306 308 309 309 309 309 309 310 309 309 309 309 308 306 305 304 304 304 304 304 305 306 307 307 306 307 307 307 307 307 307 306 306 306 305 305 307 308 308 308 309 310 310 309 309 309 309 308 308 307 307 307 306 306 305 303 303 302 301 300 300 299 298 297 296 295 294 293 292 290 289 288 288 287 287 287 286 286 286 286 285 285 284 284
305 305 306 308 309 309 309 308 308 309 309 308 307 306 306 305 304 303 303 303 303 304 305 305 305 305 305 305 305 305 305 305 305 305 305 305 306 308 309 308 308 308 309 308 308 308 308 308 307 307 306 306 306 305 304 303 302 301 300 299 299 298 297 296 295 293 292 291 289 288 288 287 287 287 286 286 286 286 285 285 284 284 283 283 283
306 305 306 306 308 309 309 309 308 308 307 307 306 305 304 304 304 303 303 302 302 303 303 304 304 304 303 303 303 303 304 304 304 305 305 306 307 308 308 307 307 307 307 307 306 307 307 306 306 305 305 305 304 303 302 301 300 299 298 297 297 296 294 293 291 290 289 288 288 287 287 287 286 286 286 286 285 285 284 284 283 283 283 282 282
306 306 306 306 307 308 309 309 309 308 307 306 305 304 303 303 303 303 303 302 302 302 302 303 303 303 302 302 302 302 303 303 304 305 306 306 307 308 308 307 306 305 305 306 305 305 305 305 304 304 304 303 302 301 300 298 298 297 296 295 294 292 291 289 288 288 287 287 287 287 286 286 286 286 285 285 284 284 283 283 283 282 282 282 282
306 306 306 306 306 307 308 309 309 308 307 306 305 303 302 302 301 301 301 301 301 301 301 301 302 302 302 302 302 302 303 304 304 304 305 306 307 307 306 305 304 303 302 303 303 303 304 304 303 303 303 302 300 299 298 297 296 295 294 292 290 289 288 287 287 287 287 286 286 286 286 285 285 284 284 284 283 283 283 282 282 282 282 282 281
306 306 306 306 306 306 306 308 309 308 307 306 305 303 301 300 299 299 299 299 300 299 299 300 301 302 302 302 302 302 303 304 304 304 305 305 306 306 305 304 303 302 302 301 301 301 301 302 302 302 301 299 298 297 296 295 294 292 290 289 288 287 287 287 287 286 286 286 286 285 285 284 284 284 283 283 283 283 282 282 282 282 282 282 281
306 306 306 305 305 305 306 306 307 308 307 306 305 303 300 298 298 298 298 298 298 298 298 299 300 301 301 302 302 302 302 303 304 304 304 304 304 304 304 303 303 303 302 301 300 300 300 300 301 300 298 297 296 295 294 292 290 288 288 287 286 286 286 286 286 286 285 285 285 284 284 284 283 283 283 283 283 282 282 282 282 281 281 281 281
306 306 306 304 303 304 304 305 305 306 306 306 305 303 300 297 297 297 297 297 297 298 298 298 298 299 300 301 302 302 301 302 302 302 302 302 302 301 301 302 302 302 301 301 300 300 300 300 299 298 296 295 294 292 290 289 288 287 286 286 286 286 286 286 285 285 284 284 284 284 283 283 283 283 283 283 282 282 282 282 282 281 281 281 281
306 306 306 305 303 301 302 303 303 304 304 304 304 303 300 297 296 296 296 296 297 297 297 297 298 298 299 300 300 301 300 300 300 300 300 299 299 299 299 299 300 300 300 300 299 299 299 298 297 295 294 293 291 289 288 287 286 286 286 286 286 285 285 285 284 284 284 284 284 283 283 283 283 283 283 282 282 282 282 281 281 281 281 280 280
304 305 306 305 303 301 300 300 301 301 301 302 302 302 300 297 295 295 296 296 296 297 297 297 297 297 298 299 299 300 300 299 299 298 298 298 297 297 297 298 298 298 298 297 297 297 297 296 295 293 291 289 288 287 286 286 285 285 285 285 285 285 284 284 284 284 284 284 283 283 283 283 283 283 282 282 282 282 281 281 281 281 280 280 280
302 303 304 303 302 300 299 298 298 298 298 299 299 300 300 298 295 295 295 295 295 296 296 296 296 297 297 298 298 298 298 299 298 298 297 297 297 297 297 297 297 296 296 296 296 296 295 293 292 290 288 286 286 285 285 285 285 285 285 284 284 284 284 284 284 284 284 283 283 283 283 283 283 282 282 282 282 281 281 281 281 280 280 280 279
300 301 302 301 299 297 297 297 296 296 296 296 296 297 298 297 295 294 294 295 295 295 295 295 296 296 296 296 296 296 297 297 298 297 297 297 297 297 296 295 294 294 294 295 294 293 291 290 288 287 286 285 285 285 285 284 284 284 284 284 284 284 284 284 284 284 284 283 283 283 283 283 282 282 282 282 281 281 281 281 280 280 280 279 279
299 299 300 299 297 294 293 293 293 293 294 294 294 295 296 296 295 294 294 294 294 294 294 295 295 295 295 295 296 295 295 295 296 296 296 296 295 294 294 293 292 292 292 292 291 289 288 286 285 285 284 284 284 284 284 284 284 284 284 284 284 284 284 284 284 284 284 283 283 283 282 282 282 282 281 281 281 281 280 280 280 280 280 279 279
298 298 298 297 295 293 291 290 291 291 292 292 292 292 293 294 294 293 293 293 293 293 293 294 294 294 295 294 294 294 294 293 293 293 293 293 292 291 291 291 290 290 289 288 287 285 285 284 284 284 284 284 284 284 284 284 284 284 284 284 284 284 284 284 284 284 283 283 283 282 282 282 281 281 281 281 280 280 280 280 280 280 279 279 279
295 296 296 295 294 291 290 289 290 290 290 290 290 291 291 292 292 292 292 292 292 292 292 293 293 293 294 294 293 292 292 291 290 290 290 290 289 289 289 288 287 286 286 285 284 283 283 283 284 284 284 284 284 284 285 285 285 285 285 285 285 284 284 284 283 283 283 282 282 282 281 281 281 280 280 280 280 280 280 280 279 279 279 279 278
293 294 294 294 292 291 289 289 289 289 289 289 289 289 290 290 291 291 291 291 292 292 292 292 292 292 292 292 292 291 290 289 288 288 288 288 288 287 287 285 284 284 283 283 283 283 283 284 284 284 285 285 285 285 285 285 285 285 285 285 284 284 284 283 283 282 282 282 281 281 281 280 280 280 280 280 280 279 279 279 279 279 279 278 278
290 292 292 292 290 289 289 288 287 287 287 287 288 288 288 289 290 290 290 290 290 291 291 291 291 291 291 290 290 289 288 288 287 287 287 287 286 285 284 283 282 282 282 283 283 284 284 285 285 285 286 286 286 286 285 285 285 285 284 284 284 283 283 282 282 282 281 281 280 280 280 279 279 279 279 279 279 279 279 279 279 279 278 278 278
287 288 289 289 288 287 287 287 286 285 285 286 286 286 287 287 288 289 289 289 289 289 290 290 290 289 289 288 287 287 286 286 286 285 285 284 283 283 282 282 283 283 284 284 285 285 286 286 286 286 286 286 285 285 285 284 284 284 284 283 283 283 282 282 281 281 280 280 280 279 279 279 278 278 278 278 278 278 278 278 278 278 278 278 277
285 286 286 286 286 285 285 285 285 285 284 284 285 285 285 286 286 287 287 287 287 287 287 287 287 286 286 285 285 285 284 284 283 283 282 282 282 282 283 284 285 285 285 286 286 286 286 286 285 285 285 285 284 284 284 284 283 283 283 283 282 282 281 281 280 280 279 279 279 278 278 278 278 278 278 278 278 278 278 278 278 278 277 277 277
283 284 284 284 284 283 283 283 284 284 284 284 284 284 284 284 285 285 285 285 285 285 285 285 285 284 284 283 282 282 282 282 282 282 282 283 284 285 285 285 286 286 286 286 286 285 285 285 285 284 284 284 284 284 283 283 283 282 282 282 281 281 280 280 280 279 279 278 278 278 278 277 277 277 277 278 278 278 278 277 277 277 277 277 276
282 282 282 282 282 281 281 282 282 283 283 283 283 283 283 283 283 284 284 284 283 283 283 283 282 282 281 281 281 281 282 282 283 284 284 285 285 285 285 285 285 285 285 285 285 285 284 284 284 284 284 283 283 283 282 282 282 281 281 281 280 280 279 279 279 278 278 277 277 277 277 277 277 277 277 277 277 277 277 277 277 277 276 276 276
Wind_Speed
26 26 28 29 30 30 30 30 32 34 35 37 38 39 39 40 40 40 41 41 42 41 40 40 39 38 36 35 34 34 33 33 33 33 32 33 33 35 35 36 37 37 37 37 36 36 35 34 34 33 31 30 29 30 31 30 31 33 33 33 33 33 32 34 38 37 34 33 34 35 33 33 30 25 22 22 22 23 24 24 25 26 28 28 26
28 28 28 29 30 30 30 30 31 33 34 36 37 36 37 39 39 39 40 39 40 40 40 39 39 38 37 36 34 34 34 33 32 32 32 32 33 34 35 36 37 36 35 35 35 34 33 32 31 30 30 31 32 32 32 31 31 31 32 32 32 31 30 31 34 34 32 31 32 33 32 30 28 24 21 21 21 22 22 22 23 25 27 26 25
28 28 28 29 30 29 30 30 31 32 34 35 35 35 36 37 37 38 38 37 38 39 38 38 38 37 37 36 35 34 34 34 33 32 32 32 33 34 35 35 35 34 34 34 33 30 28 28 28 27 28 31 31 31 31 32 31 31 30 31 31 29 27 28 30 30 31 32 33 33 32 29 26 23 21 20 20 21 21 22 23 23 25 25 25
27 28 28 29 29 29 29 29 29 31 32 34 35 34 34 35 36 36 36 36 37 38 37 37 37 37 37 36 35 35 35 34 33 33 33 33 33 33 33 33 34 34 34 32 30 28 28 30 29 27 25 27 28 28 30 32 31 31 30 29 30 29 28 29 31 30 30 32 33 33 32 29 26 24 23 22 21 21 22 22 23 24 25 25 26
25 25 26 26 27 27 27 27 28 28 29 31 32 32 33 34 34 35 35 35 36 36 36 36 36 37 37 36 36 36 35 34 34 33 33 33 33 33 33 33 33 33 32 31 30 30 30 30 30 28 28 29 29 29 31 31 30 31 31 31 31 30 29 30 31 31 30 31 32 31 30 28 27 27 25 23 21 22 23 23 23 25 26 26 27
22 23 23 23 23 24 24 25 26 27 27 27 28 29 30 31 33 34 34 35 35 35 36 36 36 37 38 37 37 36 35 34 34 33 33 34 33 33 33 32 32 33 32 32 31 30 29 30 30 30 31 32 30 31 32 31 29 30 31 31 30 29 29 29 30 30 29 28 29 28 27 27 29 29 27 23 21 23 23 24 25 26 26 27 27
23 23 23 23 23 23 22 23 24 25 26 26 27 28 28 30 31 32 33 34 34 35 36 37 38 38 38 37 37 36 35 34 34 34 35 35 34 34 33 33 33 33 32 31 31 30 30 31 30 30 31 31 30 30 28 26 27 29 29 29 27 26 26 25 25 24 24 26 28 28 27 28 31 31 27 23 22 24 24 25 27 27 26 26 27
26 26 26 26 25 24 23 22 22 24 25 27 28 29 29 30 31 32 32 33 34 35 36 37 37 38 38 37 37 36 35 35 35 36 36 35 34 34 34 34 35 33 31 31 32 31 30 31 31 30 30 29 29 28 26 24 26 27 27 26 24 23 23 22 22 22 23 25 27 28 29 30 31 30 26 24 25 26 26 26 26 26 25 25 25
29 29 28 27 26 25 24 22 22 23 24 26 28 29 31 31 32 33 34 34 35 35 36 37 37 38 38 38 37 36 36 36 36 36 36 35 34 33 31 31 32 32 31 32 33 32 32 32 32 30 29 28 27 28 29 28 27 25 24 24 24 24 24 25 26 26 26 27 28 30 31 31 30 29 26 25 26 25 24 24 25 25 24 25 25
31 30 30 29 26 25 24 22 21 22 24 25 26 28 30 31 32 33 34 35 36 36 37 37 38 38 38 38 37 37 37 37 37 37 35 34 33 32 31 30 30 32 32 32 33 33 33 33 31 29 28 29 27 28 31 30 28 26 25 25 25 26 27 29 30 30 29 30 30 31 30 30 29 27 25 26 26 23 22 23 23 22 23 25 25
33 32 32 30 29 28 26 23 21 22 23 24 25 26 28 30 32 33 34 34 35 36 37 38 39 39 39 39 38 38 38 38 37 35 34 32 31 31 32 32 32 34 34 34 34 34 33 32 30 28 30 31 30 30 32 31 30 29 28 26 25 26 28 30 31 30 29 30 30 29 29 27 26 24 25 26 25 21 20 21 22 22 23 24 24
34 35 34 33 32 30 28 26 22 22 23 24 25 26 27 28 30 32 33 34 34 36 37 38 39 39 39 39 39 39 39 38 36 35 33 32 30 30 32 34 35 35 34 33 33 33 32 31 30 30 32 33 31 30 31 32 32 31 29 27 25 25 28 30 30 29 27 27 27 27 26 24 24 25 26 25 22 20 20 21 22 22 23 23 23
37 36 36 35 34 32 31 29 26 23 23 24 25 26 26 28 29 30 31 32 33 35 35 36 37 37 38 39 39 39 38 36 35 34 33 31 30 32 35 36 36 36 35 34 34 33 33 32 32 32 33 32 31 31 31 32 32 31 28 27 26 26 27 29 28 26 24 24 24 24 24 23 25 26 24 20 18 18 19 20 19 19 21 22 22
41 40 38 37 36 34 33 32 29 26 24 24 25 26 27 28 28 28 29 30 30 32 32 33 34 35 36 37 37 37 37 36 34 33 30 30 31 35 37 37 36 36 35 35 35 34 34 34 34 34 33 32 30 30 31 31 31 29 28 28 28 27 27 28 27 24 23 23 23 24 24 24 24 24 21 18 18 18 18 17 17 18 20 21 22
43 42 40 38 36 35 34 34 33 30 28 26 25 26 28 29 28 27 27 27 27 27 28 29 30 31 33 34 34 35 34 33 32 32 32 34 35 37 38 37 35 35 34 34 35 34 33 33 34 34 33 32 29 27 29 29 29 28 28 28 28 27 27 27 26 24 24 24 24 24 24 24 23 23 21 19 19 19 18 17 18 19 20 21 22
41 40 38 37 36 35 34 35 35 34 32 29 26 26 28 30 29 26 25 24 24 24 25 25 26 27 28 30 31 32 31 31 31 32 34 35 36 37 37 36 35 35 36 35 34 33 32 31 32 32 31 31 30 29 30 30 29 28 27 27 27 27 27 27 26 26 25 24 24 23 22 21 21 21 21 19 20 21 20 20 20 20 21 23 24
37 35 33 33 32 32 33 35 36 37 37 34 28 27 30 31 30 27 25 24 22 22 23 23 24 25 25 27 28 28 28 29 30 31 32 32 32 33 35 36 36 36 36 35 34 34 33 32 31 31 30 30 30 30 30 29 29 28 27 26 27 27 26 26 26 25 24 23 22 20 18 18 18 19 19 19 20 22 22 22 21 21 21 23 24
36 34 32 30 28 28 30 32 35 37 39 38 33 30 32 33 32 30 27 25 23 22 23 24 24 24 25 25 26 26 26 26 27 28 29 29 30 30 31 34 35 35 35 35 35 35 35 33 31 30 30 30 31 31 29 29 29 28 26 25 27 27 26 25 24 22 21 20 19 17 16 16 16 17 18 19 21 21 21 22 21 21 22 23 24
38 36 34 30 28 29 30 31 32 34 37 39 38 35 35 35 35 34 31 28 26 26 26 27 27 26 26 26 25 25 25 25 25 26 27 28 29 30 31 31 33 35 35 36 35 35 35 34 33 32 30 31 32 32 31 30 28 27 26 26 28 27 24 22 20 19 18 17 16 15 15 15 16 17 18 19 20 20 21 22 22 22 22 23 23
36 37 36 33 32 32 32 32 32 32 33 36 39 40 40 39 38 37 36 33 31 30 30 30 29 29 28 27 27 27 27 26 27 28 29 29 30 32 33 34 35 36 37 37 37 37 36 35 35 35 33 32 32 31 30 29 27 26 26 27 27 25 21 20 19 18 17 16 15 15 16 16 17 17 18 19 20 20 21 21 22 22 22 22 23
33 34 34 35 35 35 34 33 33 32 32 33 38 42 43 43 42 41 40 38 36 33 32 31 31 31 30 30 29 29 28 28 28 29 31 32 33 35 37 38 40 40 40 39 40 40 39 38 37 36 34 32 30 28 27 26 25 25 25 26 25 22 20 19 18 17 16 16 16 16 16 16 16 16 17 18 19 20 21 21 21 21 21 21 22
31 32 33 35 36 35 35 35 34 33 32 34 37 40 43 46 46 44 44 43 40 36 34 33 33 33 32 32 32 31 30 30 30 31 32 33 35 36 37 37 38 40 40 39 39 38 36 34 32 31 30 29 28 27 25 25 24 23 23 24 24 22 20 19 17 16 16 17 17 17 15 15 15 15 16 17 18 19 20 20 21 21 21 21 22
31 32 34 36 36 35 36 35 35 34 34 35 37 39 42 46 48 47 47 46 43 40 38 36 35 36 35 34 33 33 32 32 32 32 33 34 35 36 37 36 36 36 36 36 35 33 30 27 26 27 27 28 27 25 24 24 23 23 23 23 22 21 19 18 17 17 18 18 17 16 14 14 14 14 15 16 17 18 19 20 20 20 20 21 21
32 33 34 35 36 36 35 34 35 35 34 35 37 39 41 45 47 48 48 48 47 44 41 39 38 38 37 36 35 34 34 33 33 33 33 33 34 34 34 34 33 32 31 31 30 29 28 26 26 26 27 26 24 23 23 25 25 24 23 22 21 20 19 19 19 19 19 18 16 15 15 15 14 14 15 15 15 16 17 18 18 18 18 18 19
33 34 35 34 35 36 36 35 35 35 34 35 36 39 41 44 46 46 47 49 49 47 44 42 41 40 39 38 36 35 34 34 34 33 33 32 31 30 31 31 32 31 31 30 29 28 27 26 26 27 26 25 24 24 26 27 27 26 24 23 22 22 21 21 20 19 18 17 16 16 15 15 14 13 13 13 14 14 15 15 16 16 16 16 16
33 34 35 34 33 34 36 37 35 34 34 35 36 38 41 44 45 45 45 48 50 50 47 45 44 43 41 39 38 36 35 34 34 34 34 33 33 33 34 34 34 33 34 34 33 31 29 28 28 28 28 28 28 28 29 29 28 26 25 24 24 23 22 21 19 18 17 16 16 15 15 14 13 12 12 12 12 13 13 13 14 14 14 13 13
34 34 34 34 33 32 34 37 37 35 34 34 36 38 40 43 45 45 46 47 50 51 49 47 46 45 43 41 39 37 36 35 35 36 35 35 35 35 35 35 35 35 36 37 37 35 33 31 30 29 30 31 31 30 29 28 27 26 25 25 25 23 22 20 18 17 17 16 15 14 13 12 11 10 10 10 11 11 12 12 12 13 12 12 12
35 36 35 33 32 31 31 33 36 36 35 34 34 36 38 41 43 45 45 46 48 51 51 49 48 46 45 43 41 39 37 36 36 37 37 36 36 35 34 34 34 34 34 35 35 34 33 32 31 30 31 33 32 30 29 27 26 26 26 26 25 23 21 20 18 17 16 16 15 13 12 11 10 9 9 10 10 10 10 10 11 11 11 11 12
34 37 37 36 33 31 30 31 32 34 35 35 34 34 35 38 41 43 44 44 46 49 50 50 48 46 45 44 41 40 38 36 34 35 36 36 36 35 35 34 34 33 33 32 32 33 33 34 34 33 34 34 32 30 29 28 27 27 26 25 24 22 20 19 18 17 16 15 14 13 11 10 9 9 9 9 9 9 9 10 10 11 11 12 13
34 35 38 39 36 32 31 31 31 32 33 33 34 34 34 36 39 41 43 43 44 45 46 47 47 45 43 42 40 38 36 32 30 30 33 34 33 33 33 32 31 32 33 32 32 33 34 35 36 35 34 33 31 30 29 29 29 27 25 23 22 20 19 18 17 16 15 14 13 12 11 10 9 8 8 8 9 9 10 10 11 12 12 12 13
31 33 36 39 39 36 33 31 31 31 31 31 31 32 32 34 37 39 42 43 43 43 43 44 44 42 40 38 36 35 33 30 28 27 29 32 32 32 32 32 32 33 33 34 35 33 33 34 35 35 33 32 31 30 30 29 28 26 23 21 21 20 19 18 17 16 15 14 13 12 10 9 9 8 8 9 9 10 10 11 12 12 12 13 13
29 30 32 36 38 39 37 34 31 31 31 30 30 29 30 32 35 37 40 42 42 42 41 41 41 40 38 36 35 33 31 30 29 27 27 30 32 33 33 34 33 32 33 35 36 33 32 33 34 34 33 31 31 31 30 28 26 24 22 21 21 20 19 18 17 16 15 14 12 11 10 9 9 9 9 9 10 10 11 11 12 12 12 13 13
30 29 29 31 35 38 39 38 35 32 31 30 29 29 29 31 33 35 36 38 41 42 41 40 39 38 36 34 33 31 29 27 27 28 28 29 33 36 35 33 33 33 35 37 36 34 33 34 33 32 32 32 31 30 29 27 25 24 23 22 21 20 19 18 17 16 14 13 12 11 10 10 10 9 10 10 10 10 11 11 12 12 12 13 14
32 31 29 29 31 34 37 37 37 35 32 30 29 29 30 30 31 33 35 36 38 40 40 39 38 36 33 31 29 28 26 25 26 29 30 31 34 36 35 33 33 35 37 38 37 35 34 33 33 32 31 31 30 30 29 27 26 25 24 23 21 20 19 18 17 15 14 13 12 11 11 10 10 10 10 10 10 10 10 11 12 12 13 14 15
32 33 32 30 29 31 34 35 36 36 34 31 29 28 29 30 31 32 34 35 36 38 39 39 38 36 33 31 29 28 27 27 27 29 31 34 36 36 34 35 37 38 38 37 36 34 33 32 32 31 31 30 31 30 28 27 26 25 24 23 22 21 19 17 16 15 14 13 12 11 11 10 10 9 10 10 10 11 11 12 13 13 13 14 15
32 32 32 32 31 31 31 33 34 35 34 32 29 27 27 29 30 31 32 33 34 35 36 37 37 36 35 33 31 29 28 29 29 30 32 36 39 38 36 39 42 43 41 38 35 33 31 31 30 31 32 32 30 28 27 26 25 24 23 22 21 19 18 16 15 14 13 12 12 11 10 10 9 9 10 11 11 12 12 13 13 13 14 14 14
34 32 31 31 32 31 31 31 32 33 33 32 30 27 26 28 30 31 32 33 34 34 35 36 36 37 36 35 33 31 30 30 30 30 32 36 39 39 38 41 44 43 40 38 35 33 31 31 31 33 33 32 30 29 28 27 26 25 23 22 20 18 17 15 14 13 12 12 11 11 10 10 10 10 11 12 13 13 13 13 13 13 13 13 12
35 33 32 30 30 31 31 30 30 30 31 31 30 27 26 27 30 31 32 33 34 35 35 35 35 36 37 36 35 33 32 32 33 33 35 38 40 40 41 42 42 40 38 36 35 34 34 34 34 33 32 30 30 30 29 28 26 25 23 21 19 17 16 14 13 13 12 12 11 11 11 11 11 12 13 13 13 13 13 13 13 13 12 11 11
36 34 33 31 30 30 31 30 30 29 29 29 30 28 26 26 29 32 33 34 35 35 34 34 34 35 35 36 36 35 34 35 36 37 39 40 41 42 42 40 38 36 36 36 36 37 37 37 35 32 31 31 31 30 28 27 25 23 21 20 18 17 15 14 14 13 12 12 11 11 12 12 13 13 14 14 14 14 13 13 12 11 10 10 9
36 35 33 31 30 29 30 30 30 29 29 29 29 28 26 26 28 31 34 35 36 36 35 35 35 34 35 36 37 37 37 37 38 39 41 42 42 41 40 37 36 36 36 37 38 39 37 35 33 32 31 31 30 28 27 25 23 22 20 19 17 16 15 14 13 12 12 12 12 12 13 13 14 14 14 14 14 13 13 12 11 10 10 9 9
36 35 34 31 29 28 29 30 30 29 28 28 28 27 27 25 26 30 34 36 36 36 36 36 35 34 34 35 37 38 38 39 40 41 41 41 40 38 37 35 35 35 36 37 37 36 34 32 31 31 30 29 28 27 25 24 22 21 19 17 16 15 14 13 13 12 12 12 13 13 14 14 15 15 15 15 14 13 12 11 10 10 10 9 9
36 36 34 31 28 27 28 29 29 28 28 28 27 27 27 24 24 28 33 35 36 37 37 37 35 34 34 36 38 38 39 39 40 39 39 38 38 38 37 35 34 33 34 34 33 32 30 30 29 30 29 28 26 25 23 22 20 18 17 16 15 14 13 13 12 12 13 13 14 15 15 15 16 15 15 15 14 12 11 10 10 10 10 9 9
36 36 35 32 29 27 27 28 28 27 27 27 27 26 26 24 23 27 31 34 35 37 37 37 36 35 36 37 38 39 38 38 37 37 38 38 38 37 36 34 32 31 30 29 28 28 28 29 29 28 27 25 23 22 20 19 18 17 16 16 15 14 14 13 13 13 14 15 15 16 16 16 16 16 15 14 13 12 11 11 11 10 9 9 9
35 35 35 33 30 27 27 28 29 28 27 27 26 26 25 24 24 27 31 33 34 36 37 37 37 37 37 38 38 38 37 36 36 36 36 36 35 34 32 30 29 27 27 27 27 28 28 28 27 26 24 23 21 20 19 18 17 17 16 16 15 15 14 13 14 15 15 16 16 17 17 17 16 15 14 13 12 12 12 11 11 10 10 9 9
33 33 34 32 30 28 27 29 30 29 28 27 26 27 27 26 25 27 31 33 33 34 36 37 37 38 38 38 38 37 36 35 33 33 33 33 31 30 29 28 27 27 28 29 28 27 26 25 24 22 21 20 19 18 18 17 17 16 16 15 15 14 14 14 15 15 16 16 16 17 16 16 15 15 14 13 13 13 12 11 11 10 10 10 10
31 31 31 31 30 28 28 28 29 30 29 28 27 28 29 29 28 28 30 32 32 33 35 37 37 38 37 37 37 36 35 33 31 30 30 29 28 28 28 28 28 28 28 27 26 25 23 22 21 20 19 18 17 17 17 16 16 15 15 14 14 14 14 15 15 15 16 16 16 16 16 15 15 15 14 14 13 13 12 11 11 10 10 10 10
29 29 29 28 28 28 28 27 28 28 28 28 28 28 29 30 29 28 29 30 32 32 34 36 37 37 36 35 35 35 33 31 29 29 28 27 27 27 28 28 27 26 25 23 22 21 20 19 18 17 17 16 16 16 16 15 15 15 14 14 14 14 14 15 15 15 16 16 16 16 15 15 15 15 14 14 13 13 12 12 11 11 10 10 10
26 26 26 25 26 26 26 25 25 25 26 26 27 27 28 29 29 28 28 29 30 31 33 34 35 34 33 32 31 30 29 27 27 27 27 28 28 28 27 26 24 23 21 20 19 18 17 16 16 16 16 15 15 15 15 14 14 14 14 14 14 15 15 15 15 15 16 16 15 15 15 15 15 14 14 14 13 13 12 12 11 11 10 10 10
21 21 21 21 21 22 22 21 21 22 23 24 25 26 26 27 27 27 27 27 29 30 31 31 30 29 27 26 26 25 26 26 27 28 29 29 28 26 24 23 21 20 18 17 16 16 15 15 15 15 15 14 14 14 14 14 14 14 15 15 15 15 15 15 15 15 15 15 15 15 16 15 15 14 14 14 14 13 13 12 11 11 10 10 10
15 15 14 14 16 18 18 17 16 18 19 21 22 23 24 24 25 24 24 24 25 25 24 24 24 23 23 24 25 25 26 27 27 27 26 25 23 22 20 19 18 17 16 16 15 15 14 14 14 14 14 14 14 14 14 14 15 15 15 15 15 15 15 15 15 15 15 15 16 16 16 15 15 15 14 14 13 13 13 12 11 10 10 10 10
7 7 7 8 11 13 13 12 11 12 13 15 17 19 19 19 19 18 18 18 18 18 19 20 22 23 24 25 24 24 23 22 21 20 19 19 18 17 16 16 15 15 15 14 14 14 14 13 13 13 14 14 14 15 15 15 15 15 15 16 15 15 15 15 15 15 15 15 16 16 15 15 15 15 14 14 14 13 12 12 11 11 10 10 10
Wind_Direction
263 266 267 267 267 267 266 265 261 257 255 255 255 256 257 257 255 255 254 254 255 256 256 256 257 258 258 257 255 254 253 251 250 249 248 247 246 246 246 245 245 246 247 248 247 245 243 243 245 246 247 248 248 247 247 247 248 249 250 254 257 258 262 266 266 269 273 276 278 278 275 273 275 278 276 272 269 267 267 267 264 261 259 259 259
266 267 267 265 265 265 265 265 264 260 257 256 256 255 255 255 254 254 253 252 254 255 256 256 257 258 258 257 256 255 254 253 251 251 250 249 247 246 245 244 245 246 247 248 248 247 245 244 245 248 250 252 251 250 249 246 246 250 252 256 258 259 263 267 269 272 276 279 280 280 278 275 274 276 278 275 269 266 265 263 262 261 260 260 258
266 266 265 264 264 265 265 265 265 263 260 259 258 256 254 254 254 254 253 252 253 254 255 256 257 258 258 257 256 255 254 253 251 251 251 251 250 249 247 246 246 246 247 247 247 246 246 248 250 249 249 249 248 248 246 244 245 251 253 256 260 262 265 269 271 273 276 276 275 275 275 272 270 273 276 274 269 266 264 261 260 260 259 258 255
267 267 267 266 267 266 266 266 266 265 263 262 261 259 256 254 253 253 253 252 253 254 255 256 257 258 257 256 254 253 253 252 252 251 250 250 250 249 249 247 246 246 246 246 245 244 246 250 251 249 246 245 243 242 243 244 247 252 255 258 262 262 262 265 269 270 270 271 271 273 274 270 268 273 277 277 273 268 265 263 261 258 256 254 253
267 267 268 268 268 268 267 266 266 267 267 266 264 262 259 256 254 253 253 253 254 255 256 256 256 256 255 255 254 253 253 252 252 251 250 249 248 248 248 246 245 245 245 244 243 242 244 244 244 246 249 249 245 242 242 243 249 254 256 255 256 256 257 260 265 267 267 269 270 273 273 267 266 273 277 276 274 268 263 263 262 258 254 252 253
266 266 267 267 267 268 268 267 267 269 269 268 267 264 261 259 258 256 255 255 255 255 255 255 254 254 254 253 253 253 253 252 251 249 249 248 247 247 246 245 244 243 241 241 240 239 241 244 245 246 249 250 249 251 251 248 249 253 252 252 255 256 257 259 262 264 264 266 268 269 266 261 263 270 272 272 272 269 265 264 263 259 253 251 253
267 266 266 267 268 269 269 270 270 270 270 269 267 265 262 260 259 258 257 256 255 255 254 254 253 252 252 252 252 252 251 250 249 247 246 245 244 244 243 242 244 243 238 236 236 236 239 244 246 246 249 250 252 255 255 250 249 252 253 256 258 256 254 254 255 257 259 259 258 255 252 252 257 263 267 269 268 268 267 265 263 261 255 252 253
269 269 267 265 267 268 269 270 271 271 270 269 267 265 263 261 259 258 256 255 254 254 253 253 253 252 251 251 250 249 247 246 246 245 244 243 242 242 242 241 241 239 235 235 237 239 242 245 245 243 246 249 248 248 246 246 251 255 253 251 249 247 249 250 251 253 256 255 251 246 246 248 253 259 263 264 266 273 276 271 267 265 260 256 255
272 270 268 265 265 266 267 268 270 272 271 270 268 266 264 262 260 258 256 255 253 252 252 251 251 251 250 249 248 247 246 245 244 244 243 242 241 242 245 244 238 233 234 238 241 243 245 245 242 240 241 243 243 242 241 245 253 255 246 242 241 243 248 251 252 251 251 250 247 244 245 249 253 258 262 267 276 282 280 272 269 268 262 258 257
278 274 270 265 263 263 264 266 271 275 276 275 273 271 268 266 263 260 259 257 255 253 251 250 250 250 249 248 247 246 245 245 245 244 243 242 241 241 244 242 235 231 237 241 240 239 240 240 238 238 239 240 239 239 241 246 250 250 246 246 248 249 251 253 253 252 250 248 246 245 248 251 255 259 266 277 284 279 268 267 268 265 259 258 259
280 279 274 269 265 263 261 263 271 278 281 280 279 278 275 271 268 265 262 260 258 255 253 251 250 250 249 248 247 246 245 246 245 245 244 244 241 237 236 237 236 237 242 244 242 238 236 237 237 236 239 241 239 239 243 245 245 246 249 253 256 256 255 255 254 254 251 249 247 248 249 251 256 262 270 279 279 268 261 265 265 260 258 260 264
283 280 277 273 268 265 263 262 267 277 281 282 283 282 279 276 274 271 267 264 260 257 255 253 252 251 250 249 248 247 246 246 246 245 242 240 237 234 235 239 241 242 242 243 242 238 235 236 235 234 238 241 239 239 240 240 242 247 250 252 255 255 254 253 254 253 251 248 246 246 246 249 257 264 271 277 274 262 257 259 260 258 260 263 268
294 288 282 276 271 268 266 263 264 270 277 280 281 281 281 280 278 276 271 267 262 259 258 256 255 253 251 250 249 249 248 247 246 245 241 237 238 240 242 243 243 243 242 241 240 237 234 234 234 234 237 239 239 239 236 234 239 245 244 245 250 253 252 251 252 251 245 240 240 243 247 253 260 265 271 273 264 255 253 256 258 261 265 270 275
299 296 291 284 277 274 271 268 265 266 269 274 277 280 282 281 280 278 274 270 265 262 260 258 256 254 252 251 250 249 249 247 245 243 240 238 239 242 243 242 243 243 242 239 238 237 235 235 237 238 238 238 240 239 233 231 238 243 243 244 250 253 252 249 249 247 241 236 240 247 253 257 261 265 267 261 250 247 251 254 257 261 266 271 272
294 296 295 292 287 283 279 275 271 267 266 269 274 278 281 280 277 276 274 272 270 267 263 259 257 254 252 251 251 249 249 247 243 240 237 236 237 239 240 240 240 240 238 237 237 237 237 238 241 240 237 235 239 242 239 240 244 244 242 245 250 254 253 249 246 243 239 239 244 251 255 259 261 262 261 253 245 243 243 245 249 255 261 263 265
287 291 293 293 293 292 289 285 280 274 269 267 271 279 281 278 273 271 271 272 272 270 267 263 259 255 252 250 249 248 247 245 242 240 237 236 235 235 234 233 233 235 235 235 235 235 236 239 240 239 235 234 239 245 247 248 247 241 239 243 249 251 249 245 243 241 240 241 245 249 254 259 261 261 260 254 247 243 241 242 246 252 259 264 268
287 290 291 291 292 293 291 290 288 283 275 268 268 279 282 276 269 265 264 265 269 271 271 267 261 256 252 249 248 248 245 242 240 237 234 232 230 229 227 227 230 232 232 233 235 236 236 237 236 236 235 237 240 243 244 245 244 241 240 243 245 246 244 242 242 240 239 239 242 247 253 258 261 262 260 255 248 244 243 245 248 254 261 267 272
292 296 296 296 294 289 284 283 285 285 280 272 267 274 281 276 267 261 260 260 263 268 269 267 263 258 254 251 249 247 244 240 237 233 231 229 228 228 227 227 229 230 230 233 236 237 236 235 235 235 237 239 241 243 245 245 243 242 243 242 242 242 241 241 239 235 234 238 243 249 255 260 263 263 259 254 248 244 244 247 251 256 262 268 273
293 295 296 298 295 287 281 277 275 277 279 275 269 269 276 276 267 260 259 258 258 261 262 262 262 260 257 254 251 249 247 243 238 236 234 230 227 227 228 229 229 229 230 231 233 233 233 234 235 235 237 238 240 244 246 245 243 243 244 243 242 241 239 237 235 233 235 240 245 251 257 262 264 262 257 252 247 244 245 248 252 256 262 267 271
293 290 289 289 286 283 282 280 275 271 271 273 270 267 269 272 267 260 257 257 256 256 256 256 258 258 257 256 254 252 250 246 241 239 237 235 230 227 227 227 228 228 229 230 232 233 233 234 234 235 236 238 240 242 241 240 240 241 242 243 244 241 235 233 234 234 237 242 247 254 259 261 262 259 255 250 247 246 247 249 253 257 260 263 267
293 288 284 280 277 275 277 279 279 275 270 268 268 266 266 268 266 260 257 257 257 255 254 254 255 256 257 257 256 254 252 250 246 243 240 238 235 231 230 230 229 230 232 234 237 238 237 235 235 234 234 236 237 237 235 236 236 236 237 240 240 235 230 231 233 233 238 245 252 256 258 257 257 255 253 250 248 247 249 251 253 256 258 260 264
299 290 283 278 274 272 271 272 274 275 273 268 265 264 264 266 266 261 257 257 257 256 255 254 255 257 256 256 257 256 255 253 251 248 245 242 239 237 236 236 235 235 237 238 240 239 236 233 231 229 230 232 231 231 233 235 232 229 231 233 231 229 228 229 231 235 242 249 253 254 254 252 252 251 249 247 246 246 249 251 252 255 258 261 265
313 302 291 283 278 274 270 269 268 269 269 268 266 264 263 264 266 262 257 256 256 256 255 253 253 255 255 255 255 255 254 252 251 248 245 242 239 237 236 236 237 238 238 239 239 236 231 226 223 224 225 226 225 228 232 230 225 223 225 226 226 226 228 230 234 241 247 250 251 251 250 250 249 246 245 245 246 247 250 253 255 259 262 266 270
320 315 306 295 284 277 271 268 266 265 266 267 267 265 263 263 265 263 258 255 255 255 255 253 252 253 254 254 253 254 253 253 251 249 245 241 239 236 234 233 233 233 235 236 236 233 229 225 223 223 223 222 226 230 227 220 216 218 221 221 222 225 229 235 242 246 247 247 247 247 248 248 246 245 247 250 252 253 255 258 260 264 268 272 276
320 319 316 308 295 284 275 269 265 264 266 267 267 267 266 266 266 264 259 256 254 253 253 253 252 251 252 252 253 255 255 254 252 249 244 240 237 233 231 229 228 228 229 229 228 226 225 224 222 223 224 225 226 225 218 214 214 215 217 219 223 228 235 241 244 243 241 241 242 243 245 245 245 248 251 255 258 260 262 265 268 271 276 279 283
324 320 317 314 305 291 280 273 269 267 267 268 269 268 269 269 269 266 261 256 254 252 252 251 251 250 250 251 252 253 253 253 251 247 242 237 234 231 228 226 227 228 227 226 225 225 225 226 227 225 223 223 222 219 215 213 213 212 215 220 227 233 238 238 235 234 233 236 238 241 243 243 244 248 252 257 263 266 269 273 276 279 283 287 290
331 326 319 314 310 299 286 278 275 272 269 268 269 271 271 271 270 267 262 258 255 252 250 249 249 249 249 251 251 250 250 250 250 247 243 238 233 228 224 222 223 224 224 226 226 225 224 224 223 221 218 217 216 214 211 211 212 214 220 226 230 232 230 226 225 227 230 234 237 238 239 241 243 248 254 259 264 267 270 275 280 284 289 293 294
334 332 326 318 311 304 294 284 280 279 277 273 270 271 273 273 272 270 267 263 259 256 252 251 250 250 250 250 249 247 247 249 251 250 246 239 231 224 219 217 217 217 218 218 218 217 216 215 214 214 214 212 209 206 207 211 216 222 228 230 228 222 217 216 220 225 228 231 234 234 236 237 239 243 249 253 258 263 268 274 279 284 289 292 293
334 333 332 327 317 308 300 292 284 282 282 281 278 275 274 275 275 274 271 267 263 259 255 253 252 252 251 250 248 248 250 255 258 256 247 237 231 227 223 219 216 214 214 214 213 212 211 210 210 210 209 206 204 205 210 218 224 226 226 223 216 210 209 213 218 222 225 227 228 228 228 229 229 232 236 243 251 258 265 271 276 281 286 288 291
331 331 331 330 326 317 306 297 290 285 282 283 283 281 279 277 275 274 271 268 263 259 255 253 252 251 250 250 251 252 256 261 262 256 245 235 230 227 227 226 222 218 216 215 215 214 212 210 209 208 206 205 206 212 219 224 224 220 214 207 204 204 208 212 214 217 219 218 218 218 218 218 220 223 230 240 250 258 265 271 276 280 285 288 292
327 328 328 327 329 326 316 304 294 288 285 284 283 283 282 280 277 273 269 266 263 260 255 253 251 250 249 250 251 253 254 253 250 246 242 234 224 220 223 225 223 221 221 217 212 210 211 210 208 206 206 209 214 221 226 223 215 208 204 202 202 204 206 207 208 209 209 208 209 210 211 213 217 223 232 244 254 261 268 273 278 282 287 291 294
322 325 326 324 325 326 323 314 301 291 289 288 285 284 283 281 279 275 271 267 264 260 255 251 249 247 246 247 248 249 248 245 238 231 230 227 220 217 219 219 218 219 221 215 210 208 211 211 210 208 210 216 222 225 221 213 206 203 203 203 203 201 201 200 200 200 200 202 204 207 211 217 222 230 239 247 256 264 271 276 280 286 291 294 297
317 319 323 323 321 321 323 321 311 299 292 289 288 286 282 280 278 277 275 270 265 260 255 250 246 243 243 245 247 247 245 241 232 222 219 219 218 215 215 217 219 220 217 212 209 211 212 212 212 214 218 223 224 218 209 203 202 201 200 199 198 197 195 194 194 195 196 199 204 209 216 224 230 239 248 254 261 268 274 279 284 288 292 295 297
313 314 316 319 319 318 318 319 316 307 296 289 287 286 283 280 279 276 274 270 265 260 256 251 245 241 240 241 243 243 239 233 225 217 215 216 217 215 214 216 219 219 217 213 212 211 211 211 214 219 223 222 215 207 200 198 198 197 195 193 191 190 191 190 191 193 196 200 207 214 223 232 240 249 257 262 267 271 275 280 284 289 292 296 298
308 309 311 313 315 315 314 314 315 310 300 290 286 285 283 281 277 273 270 269 266 262 258 253 247 242 239 236 235 234 231 227 222 219 218 217 214 212 213 215 213 210 209 209 209 210 212 217 221 221 217 211 205 201 199 198 195 192 191 189 187 187 188 189 190 194 198 205 213 221 230 239 247 254 260 266 270 274 278 281 285 288 291 293 295
302 304 305 307 309 310 310 309 310 309 304 294 286 283 281 278 274 270 268 266 264 261 257 253 248 243 238 233 230 229 227 224 222 222 222 219 214 211 214 215 211 207 205 204 205 210 216 221 221 214 206 202 200 199 196 194 191 187 186 186 187 188 188 190 193 198 203 211 220 228 236 242 248 255 261 267 271 275 279 282 284 287 290 291 292
297 298 300 302 303 304 304 304 304 305 303 296 287 281 277 274 271 268 265 262 259 256 254 251 247 242 237 231 227 224 223 222 222 223 223 220 215 213 216 217 214 211 208 207 209 214 216 214 209 203 198 197 197 194 190 189 186 184 184 184 186 187 190 194 199 205 211 218 225 231 238 244 251 258 263 267 272 276 279 281 283 285 287 287 288
292 293 295 297 299 299 299 299 298 298 297 294 287 280 274 270 268 265 262 259 257 255 253 251 247 244 240 234 227 222 219 219 220 219 218 216 212 211 213 216 216 216 217 218 219 218 211 203 199 196 195 194 192 189 187 185 183 183 184 184 186 190 194 199 205 211 217 223 228 234 242 250 257 262 265 269 273 275 278 280 282 281 281 280 282
288 288 290 292 294 294 294 293 293 291 290 289 285 279 272 267 264 262 258 255 254 252 251 248 245 243 240 234 226 220 215 213 211 209 207 207 207 208 209 211 215 221 225 225 220 212 203 196 193 191 190 189 187 185 185 184 183 183 185 186 189 194 199 204 210 215 220 226 233 241 249 256 261 265 268 271 274 275 276 277 276 274 273 273 275
286 285 285 287 289 290 289 288 287 285 283 282 281 276 270 264 260 259 256 254 252 250 247 245 243 240 237 231 225 220 215 209 205 203 202 203 205 207 210 215 221 224 223 217 209 201 195 191 188 186 185 184 183 182 182 182 183 184 187 189 194 199 202 207 212 217 224 234 242 249 256 262 266 268 271 273 274 274 273 271 268 266 266 266 266
285 284 283 284 285 285 284 283 282 281 279 278 275 272 268 262 258 256 255 253 251 248 245 242 240 238 235 229 223 219 216 212 209 207 207 208 210 213 217 220 221 219 213 207 202 196 190 185 183 181 180 180 180 180 181 183 184 187 191 193 197 201 205 210 217 225 234 243 251 258 263 266 268 269 271 272 271 268 264 261 257 256 257 259 259
285 284 282 282 282 281 280 280 279 277 275 272 269 267 266 261 255 253 252 251 249 246 243 240 238 235 230 225 219 215 214 215 214 213 214 216 218 219 218 214 210 207 206 204 200 192 183 178 178 177 177 178 179 180 183 186 188 190 193 196 199 205 211 217 225 235 244 251 258 262 264 265 266 266 265 264 262 258 252 249 247 247 249 252 255
285 284 282 280 279 278 278 278 276 272 269 268 266 265 263 257 251 249 249 248 247 244 242 240 237 230 225 221 218 215 215 216 217 219 221 220 218 214 209 203 199 199 199 197 190 182 177 175 176 175 176 178 180 182 185 188 191 194 199 203 207 212 217 223 233 242 249 254 258 260 261 261 262 260 257 254 251 246 242 240 240 241 243 245 249
282 282 281 279 277 275 274 273 272 269 267 265 264 262 258 251 245 244 244 244 243 242 241 238 233 228 223 220 218 216 215 216 217 219 219 215 209 203 199 195 192 189 186 182 177 174 174 175 176 176 177 179 182 185 189 194 198 203 208 212 216 220 224 230 238 245 250 254 256 257 258 258 256 253 249 244 239 235 234 234 235 237 240 241 244
280 279 279 277 275 272 271 270 270 269 266 263 260 257 253 247 242 240 241 241 239 238 237 234 230 226 224 221 218 216 215 214 214 213 210 205 200 196 191 186 181 177 175 173 171 170 172 174 176 179 182 185 189 194 199 204 209 213 217 220 223 227 232 238 244 248 251 254 255 255 254 252 248 244 240 234 230 229 230 231 232 233 236 239 240
277 276 275 274 272 269 268 267 267 267 265 261 258 255 251 246 240 237 238 238 236 234 233 231 227 224 222 220 218 215 212 209 206 205 203 200 195 189 183 176 171 169 169 169 169 171 173 177 181 185 190 195 200 204 209 213 216 219 222 225 229 234 238 243 247 250 251 252 252 251 250 246 241 236 231 227 226 226 226 227 230 231 232 236 239
276 274 272 271 269 266 265 265 265 265 262 259 255 252 248 244 239 235 234 235 234 232 230 227 224 221 220 218 215 211 207 202 200 200 198 192 184 177 172 168 166 165 167 169 173 176 180 185 190 195 200 205 208 211 214 217 220 223 227 231 235 240 244 247 249 249 249 250 249 246 243 239 234 230 227 225 225 225 224 226 229 230 231 235 238
276 273 271 270 268 265 262 262 262 261 258 253 249 244 242 239 235 231 229 229 228 226 223 220 218 216 214 211 207 202 197 193 190 187 181 173 168 165 164 164 166 169 173 177 181 186 190 195 200 204 208 211 214 216 219 222 225 230 234 237 241 244 246 247 248 247 246 245 243 240 236 233 229 227 226 225 224 224 224 224 226 228 231 235 237
280 278 275 273 270 267 263 261 259 258 255 249 244 239 235 232 228 224 221 220 218 216 214 212 209 207 203 196 189 182 177 173 169 165 162 161 161 162 165 168 173 177 181 186 191 196 200 204 208 211 213 216 219 221 225 229 233 236 239 242 244 246 246 246 246 244 242 239 236 233 230 228 226 225 225 225 225 224 224 225 227 230 232 235 238
285 282 280 280 276 271 266 261 258 256 252 247 241 236 231 226 221 216 211 208 207 205 203 199 194 187 179 172 166 162 160 159 158 158 159 162 164 168 172 176 181 185 190 195 199 203 206 209 213 216 220 223 227 230 233 236 239 241 243 245 246 246 245 245 243 241 237 234 231 228 226 225 225 224 224 225 225 225 226 228 230 232 234 237 240
293 293 296 293 281 271 265 260 255 251 247 243 238 233 226 218 210 199 190 185 182 179 176 172 166 160 157 155 155 155 156 157 158 161 164 167 171 176 180 185 189 193 198 201 204 207 211 215 219 224 229 233 237 239 241 243 244 245 246 246 246 245 244 243 240 237 234 230 227 226 226 225 225 224 224 224 226 227 229 231 232 234 236 239 242